Location: Hermaringen
(48.5952°N, 10.2585°E)
Time: 06:11:18
(UTC+00:00)

ISS - Pass Details

Date: 18 November 2025
Orbit: 416 x 421 km, 51.6° (Epoch: 06 December)

Event Time Altitude Azimuth Distance (km) Brightness Sun altitude
Rises 16:21:23 0° 233° (SW) 2,362 1.8 -7.6°
Reaches altitude 10° 16:23:30 10° 228° (SW) 1,499 0.3 -8.0°
Maximum altitude 16:26:47 52° 151° (SSE) 525 -3.3 -8.5°
Enters shadow 16:29:42 13° 75° (ENE) 1,353 -1.9 -8.9°
